GW0502 Weather Reports


time (UTC)temp
F
wind
direction
speed
knots
gust
knots
rain 1hr
in
rain 24hr
in
rain mn
in
humidity
%
barometer
mb
20260902072925 51 15 0.0 0.0 0.00 0.00 0.00 99 1022.6
20260902072420 51 15 0.0 0.0 0.00 0.00 0.00 99 1022.7
20260902071917 51 12 0.0 0.0 0.00 0.00 0.00 99 1022.6
20260902071416 51 7 0.0 0.0 0.00 0.00 0.00 99 1022.6
20260902070913 51 24 0.0 0.0 0.00 0.00 0.00 99 1022.7
20260902070408 51 22 0.0 0.0 0.00 0.00 0.00 99 1022.6
20260902065907 54 23 0.0 0.0 0.00 0.00 0.00 99 1022.5
20260902065402 54 2 0.0 0.0 0.00 0.00 0.00 99 1022.7
20260902064857 53 6 0.0 0.0 0.00 0.00 0.00 99 1022.6
20260902064353 52 10 0.0 0.0 0.00 0.00 0.00 99 1022.5
20260902063848 53 15 0.0 0.0 0.00 0.00 0.00 99 1022.6
20260902063348 53 22 0.0 0.0 0.00 0.00 0.00 99 1022.6
20260902062843 52 359 0.0 0.0 0.00 0.00 0.00 99 1022.4
20260902062343 52 10 0.0 0.0 0.00 0.00 0.00 99 1022.4
20260902061842 52 19 0.0 0.0 0.00 0.00 0.00 99 1022.4
20260902061338 52 9 0.0 0.0 0.00 0.00 0.00 99 1022.2
20260902060833 51 10 0.0 0.0 0.00 0.00 0.00 99 1022.1
20260902060329 51 22 0.0 0.0 0.00 0.00 0.00 99 1022.1
20260902055825 51 23 0.0 0.0 0.00 0.00 0.00 99 1022.0
20260902055321 50 24 0.0 0.0 0.00 0.00 0.00 99 1021.9
20260902054816 51 21 0.0 0.0 0.00 0.00 0.00 99 1021.8
20260902054311 51 29 0.9 0.9 0.00 0.00 0.00 99 1021.8
20260902053806 51 23 0.0 0.0 0.00 0.00 0.00 99 1022.0
20260902053301 50 20 0.0 0.0 0.00 0.00 0.00 99 1021.8
20260902052800 51 20 0.0 0.0 0.00 0.00 0.00 99 1021.6
20260902052255 52 20 0.0 0.0 0.00 0.00 0.00 99 1021.6
20260902051750 53 19 0.0 0.0 0.00 0.00 0.00 99 1021.6
20260902051249 53 353 0.0 0.0 0.00 0.00 0.00 99 1021.8
20260902050745 52 2 0.9 0.9 0.00 0.00 0.00 99 1021.6
20260902050240 52 25 0.9 0.9 0.00 0.00 0.00 99 1021.7
20260902045739 53 42 0.0 0.0 0.00 0.00 0.00 99 1021.7
20260902045235 53 17 0.0 0.0 0.00 0.00 0.00 99 1021.8
20260902044731 53 21 0.0 0.0 0.00 0.00 0.00 99 1021.4
20260902044226 53 14 0.0 0.0 0.00 0.00 0.00 99 1021.3
20260902043721 51 22 0.0 0.0 0.00 0.00 0.00 99 1021.3
20260902043217 52 22 0.0 0.0 0.00 0.00 0.00 99 1021.2
20260902042716 53 22 0.0 0.0 0.00 0.00 0.00 99 1021.2
20260902042211 53 22 0.0 0.0 0.00 0.00 0.00 99 1021.2
20260902041707 53 22 0.0 0.0 0.00 0.00 0.00 99 1021.1
20260902041201 53 22 0.0 0.0 0.00 0.00 0.00 99 1021.0
20260902040700 54 22 0.0 0.0 0.00 0.00 0.00 99 1020.9
20260902040156 54 15 0.0 0.0 0.00 0.00 0.00 99 1021.0
20260902035654 54 24 0.0 0.0 0.00 0.00 0.00 99 1021.2
20260902035149 53 20 0.0 0.0 0.00 0.00 0.00 99 1020.9
20260902034648 54 29 0.0 0.0 0.00 0.00 0.00 99 1021.2
20260902034148 56 21 0.0 0.0 0.00 0.00 0.00 99 1020.8
20260902033647 57 11 0.0 0.0 0.00 0.00 0.00 99 1021.0
20260902033142 56 10 0.0 0.0 0.00 0.00 0.00 99 1021.0
20260902032641 56 8 0.0 0.0 0.00 0.00 0.00 99 1021.0
20260902032136 56 22 0.0 0.0 0.00 0.00 0.00 99 1020.9
20260902031630 57 21 0.0 0.0 0.00 0.00 0.00 99 1020.9
20260902031126 57 22 0.0 0.0 0.00 0.00 0.00 99 1020.8
20260902030621 57 17 0.0 0.0 0.00 0.00 0.00 99 1020.7
20260902030121 57 16 0.0 0.0 0.00 0.00 0.00 99 1020.8
20260902025621 57 14 0.0 0.0 0.00 0.00 0.00 99 1020.5
20260902025116 56 17 0.0 0.0 0.00 0.00 0.00 99 1020.5
20260902024612 56 20 0.0 0.0 0.00 0.00 0.00 99 1020.7
20260902024106 56 19 0.0 0.0 0.00 0.00 0.00 99 1020.7
20260902023602 56 19 0.0 0.0 0.00 0.00 0.00 99 1020.8
20260902023056 55 19 0.0 0.0 0.00 0.00 0.00 99 1020.7
20260902022556 55 18 0.0 0.0 0.00 0.00 0.00 99 1020.5
20260902022052 56 18 0.0 0.0 0.00 0.00 0.00 99 1020.8
20260902021547 56 18 0.0 0.0 0.00 0.00 0.00 99 1020.5
20260902021042 57 18 0.0 0.0 0.00 0.00 0.00 99 1020.7
20260902020538 57 17 0.0 0.0 0.00 0.00 0.00 99 1020.5
20260902020034 57 25 0.0 0.0 0.00 0.00 0.00 99 1020.9
20260902015529 57 26 0.0 0.0 0.00 0.00 0.00 99 1020.8
20260902015025 58 12 0.0 0.0 0.00 0.00 0.00 99 1020.6
20260902014521 58 12 0.0 0.0 0.00 0.00 0.00 99 1020.7
20260902014016 59 9 0.0 0.0 0.00 0.00 0.00 99 1020.7
20260902013511 58 22 0.0 0.0 0.00 0.00 0.00 99 1020.5
20260902013006 58 22 0.0 0.0 0.00 0.00 0.00 99 1020.5
20260902012501 58 22 0.0 0.0 0.00 0.00 0.00 99 1020.3
20260902011957 58 22 0.0 0.0 0.00 0.00 0.00 99 1020.5
20260902011452 58 23 0.0 0.0 0.00 0.00 0.00 99 1020.7
20260902010951 58 23 0.0 0.0 0.00 0.00 0.00 99 1020.4
20260902010447 59 20 0.0 0.0 0.00 0.00 0.00 99 1020.3
20260902005946 59 17 0.0 0.0 0.00 0.00 0.00 99 1020.5
20260902005445 59 22 0.0 0.0 0.00 0.00 0.00 99 1020.4
20260902004942 60 23 0.0 0.0 0.00 0.00 0.00 99 1020.4
20260902004441 60 22 0.0 0.0 0.00 0.00 0.00 99 1020.3
20260902003936 60 22 0.0 0.0 0.00 0.00 0.00 99 1020.2
20260902003436 60 25 0.0 0.0 0.00 0.00 0.00 99 1020.0
20260902002932 60 25 0.0 0.0 0.00 0.00 0.00 99 1020.0
20260902002427 60 25 0.0 0.0 0.00 0.00 0.00 99 1020.0
20260902001926 61 25 0.0 0.0 0.00 0.00 0.00 99 1020.0
20260902001421 61 24 0.0 0.0 0.00 0.00 0.00 99 1020.1
20260902000917 61 21 0.0 0.0 0.00 0.00 0.00 98 1020.0
20260902000414 61 19 0.0 0.0 0.00 0.00 0.00 98 1020.2
20260901235906 61 13 0.0 0.0 0.00 0.00 0.00 96 1019.9
20260901235401 62 13 0.0 0.0 0.00 0.00 0.00 96 1020.0
20260901234856 62 12 0.0 0.0 0.00 0.00 0.00 95 1019.9
20260901234350 62 11 0.0 0.0 0.00 0.00 0.00 94 1020.0
20260901233845 62 9 0.0 0.0 0.00 0.00 0.00 93 1019.9
20260901233341 63 10 0.0 0.0 0.00 0.00 0.00 93 1019.9
20260901232836 63 23 0.0 0.0 0.00 0.00 0.00 92 1019.8
20260901232331 63 23 0.0 0.0 0.00 0.00 0.00 91 1019.8
20260901231827 64 19 0.0 0.0 0.00 0.00 0.00 89 1019.8
20260901231323 65 18 0.0 0.0 0.00 0.00 0.00 88 1019.8
20260901230819 65 37 0.0 0.9 0.00 0.00 0.00 87 1019.8
20260901230319 66 187 1.7 1.7 0.00 0.00 0.00 86 1019.8
20260901225815 66 181 2.6 2.6 0.00 0.00 0.00 86 1019.6
20260901225314 66 194 2.6 4.3 0.00 0.00 0.00 84 1019.6
20260901224809 67 199 2.6 2.6 0.00 0.00 0.00 83 1019.6
20260901224306 68 210 2.6 2.6 0.00 0.00 0.00 81 1019.3
20260901223801 68 206 2.6 2.6 0.00 0.00 0.00 80 1019.5
20260901223256 69 79 0.9 1.7 0.00 0.00 0.00 78 1019.4
20260901222752 69 74 0.9 0.9 0.00 0.00 0.00 77 1019.4
20260901222248 69 203 1.7 1.7 0.00 0.00 0.00 77 1019.0
20260901221744 69 224 3.5 4.3 0.00 0.00 0.00 76 1019.0
20260901221239 70 191 3.5 4.3 0.00 0.00 0.00 74 1019.4
20260901220739 70 206 2.6 4.3 0.00 0.00 0.00 73 1019.1
20260901220233 70 190 2.6 2.6 0.00 0.00 0.00 72 1019.2
20260901215731 70 204 4.3 5.2 0.00 0.00 0.00 71 1019.1
20260901215232 71 219 2.6 4.3 0.00 0.00 0.00 70 1019.3
20260901214730 71 206 1.7 2.6 0.00 0.00 0.00 70 1019.2
20260901214229 71 198 3.5 4.3 0.00 0.00 0.00 69 1019.3
20260901213729 71 220 2.6 2.6 0.00 0.00 0.00 69 1018.9
20260901213224 71 194 2.6 2.6 0.00 0.00 0.00 69 1019.1
20260901212724 71 215 2.6 2.6 0.00 0.00 0.00 70 1019.1
20260901212220 72 218 1.7 2.6 0.00 0.00 0.00 66 1018.8
20260901211720 72 164 6.1 7.0 0.00 0.00 0.00 67 1019.0
20260901211216 72 199 4.3 5.2 0.00 0.00 0.00 66 1019.1
20260901210712 72 184 3.5 5.2 0.00 0.00 0.00 65 1018.9
20260901210207 73 209 5.2 6.1 0.00 0.00 0.00 61 1018.9
20260901205703 73 210 3.5 5.2 0.00 0.00 0.00 62 1018.5
20260901205157 74 211 6.1 6.1 0.00 0.00 0.00 59 1018.8
20260901204653 73 158 3.5 5.2 0.00 0.00 0.00 61 1018.6
20260901204149 73 219 2.6 4.3 0.00 0.00 0.00 60 1018.6
20260901203649 74 145 6.1 7.8 0.00 0.00 0.00 59 1018.4
20260901203144 73 187 5.2 6.1 0.00 0.00 0.00 61 1018.4
20260901202643 73 199 6.1 8.7 0.00 0.00 0.00 61 1018.6
20260901202139 75 183 3.5 7.0 0.00 0.00 0.00 59 1018.7
20260901201635 73 231 2.6 2.6 0.00 0.00 0.00 63 1018.4
20260901201134 74 210 2.6 4.3 0.00 0.00 0.00 61 1018.6
20260901200634 74 223 6.1 7.8 0.00 0.00 0.00 61 1018.6
20260901200129 75 226 6.1 7.8 0.00 0.00 0.00 63 1018.5
20260901195627 74 208 7.0 7.8 0.00 0.00 0.00 62 1018.6
20260901195127 75 149 6.1 7.8 0.00 0.00 0.00 61 1018.7
20260901194622 75 222 4.3 6.1 0.00 0.00 0.00 60 1018.6
20260901194117 75 199 8.7 11.3 0.00 0.00 0.00 60 1018.7
20260901193613 76 160 4.3 6.1 0.00 0.00 0.00 60 1018.3
20260901193107 75 206 4.3 7.0 0.00 0.00 0.00 59 1018.7
20260901192602 75 213 5.2 6.1 0.00 0.00 0.00 59 1018.6
20260901192057 75 218 5.2 6.1 0.00 0.00 0.00 59 1018.8
20260901191553 75 155 3.5 5.2 0.00 0.00 0.00 59 1018.6
20260901191049 75 237 2.6 2.6 0.00 0.00 0.00 58 1018.6
20260901190544 76 153 2.6 4.3 0.00 0.00 0.00 57 1018.6
20260901190043 75 224 3.5 5.2 0.00 0.00 0.00 60 1018.6
20260901185537 76 171 5.2 7.0 0.00 0.00 0.00 58 1018.6
20260901185036 74 258 1.7 1.7 0.00 0.00 0.00 59 1018.6
20260901184531 76 235 4.3 7.0 0.00 0.00 0.00 57 1018.5
20260901184026 74 210 5.2 6.1 0.00 0.00 0.00 61 1018.6
20260901183521 75 182 2.6 4.3 0.00 0.00 0.00 58 1018.6
20260901183016 76 226 4.3 5.2 0.00 0.00 0.00 58 1018.6
20260901182512 75 274 3.5 4.3 0.00 0.00 0.00 57 1018.6
20260901182007 76 214 1.7 4.3 0.00 0.00 0.00 58 1018.6
20260901181507 75 109 3.5 4.3 0.00 0.00 0.00 60 1018.5
20260901181006 76 213 6.1 7.0 0.00 0.00 0.00 58 1018.7
20260901180505 75 6 0.0 0.0 0.00 0.00 0.00 57 1018.6
20260901180004 76 249 2.6 2.6 0.00 0.00 0.00 55 1018.8
20260901175459 73 219 4.3 6.1 0.00 0.00 0.00 58 1018.6
20260901174953 75 198 4.3 7.0 0.00 0.00 0.00 55 1018.4
20260901174449 75 200 4.3 5.2 0.00 0.00 0.00 57 1018.5
20260901173945 75 221 7.8 9.6 0.00 0.00 0.00 58 1018.5
20260901173440 75 174 6.1 6.1 0.00 0.00 0.00 62 1018.5
20260901172936 74 221 4.3 5.2 0.00 0.00 0.00 63 1018.5
20260901172431 74 53 1.7 1.7 0.00 0.00 0.00 61 1018.6
20260901171929 74 208 4.3 6.1 0.00 0.00 0.00 61 1018.5
20260901171428 74 205 3.5 6.1 0.00 0.00 0.00 63 1018.8
20260901170926 73 183 4.3 5.2 0.00 0.00 0.00 66 1018.9
20260901170422 74 204 4.3 5.2 0.00 0.00 0.00 64 1018.8
20260901165915 74 218 4.3 6.1 0.00 0.00 0.00 64 1018.8
20260901165410 73 210 7.0 7.8 0.00 0.00 0.00 64 1018.8
20260901164907 74 192 4.3 5.2 0.00 0.00 0.00 62 1018.6
20260901164407 75 209 4.3 5.2 0.00 0.00 0.00 64 1018.9
20260901163901 73 71 1.7 2.6 0.00 0.00 0.00 64 1018.8
20260901163356 72 171 2.6 5.2 0.00 0.00 0.00 66 1018.6
20260901162851 72 230 3.5 4.3 0.00 0.00 0.00 66 1019.0
20260901162349 72 231 1.7 2.6 0.00 0.00 0.00 67 1018.9
20260901161844 72 19 2.6 2.6 0.00 0.00 0.00 67 1018.9
20260901161338 71 18 1.7 1.7 0.00 0.00 0.00 67 1018.9
20260901160833 72 189 5.2 6.1 0.00 0.00 0.00 67 1019.1
20260901160330 72 49 3.5 4.3 0.00 0.00 0.00 66 1019.0
20260901155829 73 181 3.5 5.2 0.00 0.00 0.00 62 1018.9
20260901155324 73 192 6.1 7.0 0.00 0.00 0.00 64 1018.8
20260901154821 73 221 5.2 6.1 0.00 0.00 0.00 65 1019.0
20260901154319 74 221 7.0 11.3 0.00 0.00 0.00 63 1019.0
20260901153814 74 209 4.3 5.2 0.00 0.00 0.00 65 1019.2
20260901153314 73 17 2.6 5.2 0.00 0.00 0.00 64 1019.2
20260901152813 72 50 1.7 2.6 0.00 0.00 0.00 64 1019.1
20260901152312 72 142 3.5 5.2 0.00 0.00 0.00 66 1019.3
20260901151808 72 56 0.9 0.9 0.00 0.00 0.00 68 1018.8
20260901151302 72 59 1.7 2.6 0.00 0.00 0.00 66 1019.0
20260901150802 71 39 0.9 0.9 0.00 0.00 0.00 67 1019.2
20260901150300 71 74 0.0 0.9 0.00 0.00 0.00 69 1019.0
20260901145757 70 134 0.9 1.7 0.00 0.00 0.00 68 1019.2
20260901145251 71 92 0.9 1.7 0.00 0.00 0.00 69 1019.3
20260901144747 71 135 0.9 0.9 0.00 0.00 0.00 66 1019.2
20260901144243 71 25 2.6 2.6 0.00 0.00 0.00 67 1019.1
20260901143738 72 65 0.9 0.9 0.00 0.00 0.00 67 1019.3
20260901143234 71 40 0.9 0.9 0.00 0.00 0.00 68 1019.5
20260901142730 70 100 1.7 1.7 0.00 0.00 0.00 69 1019.3
20260901142229 71 64 1.7 2.6 0.00 0.00 0.00 67 1019.3
20260901141725 69 74 0.0 0.0 0.00 0.00 0.00 71 1019.4
20260901141225 69 54 1.7 1.7 0.00 0.00 0.00 73 1019.4
20260901140724 69 44 0.9 0.9 0.00 0.00 0.00 73 1019.3
20260901140222 69 31 0.0 0.9 0.00 0.00 0.00 71 1019.4
20260901135717 68 45 0.9 0.9 0.00 0.00 0.00 73 1019.5
20260901135212 68 44 0.9 0.9 0.00 0.00 0.00 74 1019.6
20260901134708 67 34 0.9 0.9 0.00 0.00 0.00 74 1019.7
20260901134203 68 30 0.0 0.9 0.00 0.00 0.00 74 1019.5
20260901133702 67 39 0.9 1.7 0.00 0.00 0.00 74 1019.3
20260901133201 67 25 1.7 1.7 0.00 0.00 0.00 73 1019.4
20260901132700 67 42 0.9 0.9 0.00 0.00 0.00 73 1019.6
20260901132155 67 32 1.7 1.7 0.00 0.00 0.00 73 1019.4
20260901131655 67 32 0.0 0.0 0.00 0.00 0.00 77 1019.4
20260901131155 67 37 0.0 0.0 0.00 0.00 0.00 76 1019.2
20260901130650 66 41 0.0 0.9 0.00 0.00 0.00 78 1019.3
20260901130148 66 41 0.9 1.7 0.00 0.00 0.00 77 1019.4
20260901125647 65 38 0.0 0.9 0.00 0.00 0.00 78 1019.3
20260901125142 65 34 0.9 2.6 0.00 0.00 0.00 80 1019.2
20260901124637 64 28 0.0 0.0 0.00 0.00 0.00 81 1019.3
20260901124137 64 35 0.9 1.7 0.00 0.00 0.00 81 1019.2
20260901123632 65 36 0.9 0.9 0.00 0.00 0.00 79 1019.4
20260901123131 64 44 0.9 0.9 0.00 0.00 0.00 81 1019.4
20260901122630 64 39 0.0 0.9 0.00 0.00 0.00 83 1019.4
20260901122125 62 37 0.0 0.9 0.00 0.00 0.00 84 1019.2
20260901121620 62 23 0.0 0.9 0.00 0.00 0.00 87 1019.4
20260901121115 60 44 0.0 0.0 0.00 0.00 0.00 93 1019.2
20260901120615 59 32 0.0 0.0 0.00 0.00 0.00 99 1019.3
20260901120110 58 43 0.0 0.0 0.00 0.00 0.00 99 1019.2
20260901115605 56 38 0.0 0.0 0.00 0.00 0.00 99 1019.2
20260901115102 56 34 0.0 0.0 0.00 0.00 0.00 99 1019.2
20260901114558 55 29 0.0 0.0 0.00 0.00 0.00 99 1019.2
20260901114057 54 34 0.0 0.0 0.00 0.00 0.00 99 1019.1
20260901113555 53 33 0.0 0.0 0.00 0.00 0.00 99 1019.1
20260901113046 51 31 0.0 0.0 0.00 0.00 0.00 99 1019.1
20260901112545 50 29 0.0 0.0 0.00 0.00 0.00 99 1019.1
20260901112040 50 23 0.0 0.0 0.00 0.00 0.00 99 1019.0
20260901111539 50 18 0.0 0.0 0.00 0.00 0.00 99 1018.9
20260901111037 50 16 0.0 0.0 0.00 0.00 0.00 99 1018.8
20260901110533 49 10 0.0 0.0 0.00 0.00 0.00 99 1018.9
20260901110029 48 21 0.0 0.0 0.00 0.00 0.00 99 1018.9
20260901105526 48 21 0.0 0.0 0.00 0.00 0.00 99 1018.8
20260901105024 48 21 0.0 0.0 0.00 0.00 0.00 99 1018.6
20260901104521 48 21 0.0 0.0 0.00 0.00 0.00 99 1018.7
20260901104016 48 9 0.0 0.0 0.00 0.00 0.00 99 1018.7
20260901103510 48 319 0.9 0.9 0.00 0.00 0.00 99 1018.8
20260901103006 47 5 0.0 0.0 0.00 0.00 0.00 99 1018.5
20260901102506 46 22 0.0 0.0 0.00 0.00 0.00 99 1018.2
20260901102000 46 22 0.0 0.0 0.00 0.00 0.00 99 1018.4
20260901101455 47 23 0.0 0.0 0.00 0.00 0.00 99 1018.4
20260901100950 48 28 0.0 0.0 0.00 0.00 0.00 99 1018.3
20260901100444 48 6 0.0 0.0 0.00 0.00 0.00 99 1018.4
20260901095944 47 356 0.0 0.0 0.00 0.00 0.00 99 1018.4
20260901095443 47 23 0.0 0.0 0.00 0.00 0.00 99 1018.0
20260901094935 48 22 0.0 0.0 0.00 0.00 0.00 99 1018.2
20260901094430 48 13 0.0 0.0 0.00 0.00 0.00 99 1018.3
20260901093929 48 8 0.0 0.0 0.00 0.00 0.00 99 1018.4
20260901093424 48 8 0.0 0.0 0.00 0.00 0.00 99 1018.3
20260901092919 48 4 0.0 0.0 0.00 0.00 0.00 99 1018.2
20260901092415 47 10 0.0 0.0 0.00 0.00 0.00 99 1018.4
20260901091910 47 9 0.0 0.0 0.00 0.00 0.00 99 1018.3
20260901091410 47 15 0.0 0.0 0.00 0.00 0.00 99 1018.3
20260901090900 47 15 0.0 0.0 0.00 0.00 0.00 99 1018.1
20260901090359 47 15 0.0 0.0 0.00 0.00 0.00 99 1018.3
20260901085856 48 15 0.0 0.0 0.00 0.00 0.00 99 1018.2
20260901085351 47 15 0.0 0.0 0.00 0.00 0.00 99 1018.1
20260901084848 47 15 0.0 0.0 0.00 0.00 0.00 99 1018.3
20260901084343 48 13 0.0 0.0 0.00 0.00 0.00 99 1018.3
20260901083839 48 13 0.0 0.0 0.00 0.00 0.00 99 1018.4
20260901083338 47 13 0.0 0.0 0.00 0.00 0.00 99 1018.2
20260901082836 47 12 0.0 0.0 0.00 0.00 0.00 99 1018.2
20260901082332 48 13 0.0 0.0 0.00 0.00 0.00 99 1018.4
20260901081827 48 13 0.0 0.0 0.00 0.00 0.00 99 1018.4
20260901081322 48 13 0.0 0.0 0.00 0.00 0.00 99 1018.2
20260901080816 49 12 0.0 0.0 0.00 0.00 0.00 99 1018.1
20260901080316 49 8 0.0 0.0 0.00 0.00 0.00 99 1018.4
20260901075810 49 5 0.0 0.0 0.00 0.00 0.00 99 1018.4
20260901075307 48 8 0.0 0.0 0.00 0.00 0.00 99 1018.2
20260901074800 47 9 0.0 0.0 0.00 0.00 0.00 99 1018.1
20260901074255 48 10 0.0 0.0 0.00 0.00 0.00 99 1018.2
20260901073751 48 10 0.0 0.0 0.00 0.00 0.00 99 1018.5
20260901073246 48 4 0.0 0.0 0.00 0.00 0.00 99 1018.6